Location: Grand Rapids
(42.9630°N, 85.6680°W)
Time: 02:45:08
(UTC-04:00)

A-11 Canister half - Pass Details

Date: 06 June 2024
Orbit: 1524 x 1684 km, 47.3° (Epoch: 21 June)

Event Time Altitude Azimuth Distance (km) Brightness Sun altitude
Rises 17:11:00 0° 204° (SSW) 4,682 11.9 42.5°
Reaches altitude 10° 17:14:23 10° 195° (SSW) 3,691 11.4 41.9°
Maximum altitude 17:22:28 35° 134° (SE) 2,266 10.0 40.4°
Drops below altitude 10° 17:30:35 10° 73° (ENE) 3,705 10.6 39.0°
Sets 17:33:57 0° 65° (ENE) 4,703 11.1 38.3°
